DW1347 Weather Reports


time (UTC)temp
C
wind
direction
speed
KPH
gust
KPH
rain 1hr
cm
rain 24hr
cm
rain mn
cm
humidity
%
barometer
mb
20260504202614 13 3 14.5 16.1 0.00 0.00 0.00 47 1017.7
20260504202111 13 306 6.4 11.3 0.00 0.00 0.00 47 1017.9
20260504201608 12 133 6.4 11.3 0.00 0.00 0.00 49 1017.8
20260504201106 12 139 3.2 8.0 0.00 0.00 0.00 51 1017.9
20260504200603 12 9 4.8 8.0 0.00 0.00 0.00 51 1017.9
20260504200059 12 68 6.4 8.0 0.00 0.00 0.00 51 1017.7
20260504195555 12 270 8.0 14.5 0.00 0.00 0.00 48 1018.0
20260504195051 12 58 9.7 12.9 0.00 0.00 0.00 48 1017.9
20260504194548 12 63 12.9 16.1 0.00 0.00 0.00 47 1018.2
20260504194043 12 354 6.4 8.0 0.00 0.00 0.00 46 1018.3
20260504193540 13 30 4.8 4.8 0.00 0.00 0.00 46 1017.9
20260504193039 12 144 4.8 4.8 0.00 0.00 0.00 45 1017.7
20260504192537 12 148 8.0 8.0 0.00 0.00 0.00 45 1017.8
20260504192035 13 71 1.6 4.8 0.00 0.00 0.00 46 1017.9
20260504191533 13 207 3.2 3.2 0.00 0.00 0.00 44 1017.9
20260504191028 13 166 3.2 3.2 0.00 0.00 0.00 46 1017.8
20260504190525 12 178 3.2 3.2 0.00 0.00 0.00 46 1018.0
20260504190021 12 115 8.0 9.7 0.00 0.00 0.00 46 1017.9
20260504185518 12 130 9.7 14.5 0.00 0.00 0.00 47 1018.3
20260504185015 13 233 6.4 8.0 0.00 0.00 0.00 45 1017.9
20260504184510 12 44 1.6 3.2 0.00 0.00 0.00 43 1018.3
20260504184006 12 272 4.8 4.8 0.00 0.00 0.00 46 1017.8
20260504183503 12 38 9.7 11.3 0.00 0.00 0.00 45 1017.8
20260504183001 12 265 9.7 11.3 0.00 0.00 0.00 45 1018.2
20260504182457 13 345 4.8 4.8 0.00 0.00 0.00 41 1017.9
20260504181955 13 335 4.8 4.8 0.00 0.00 0.00 39 1017.8
20260504181452 13 251 3.2 3.2 0.00 0.00 0.00 38 1017.7
20260504180951 13 192 4.8 4.8 0.00 0.00 0.00 38 1017.8
20260504180449 13 223 1.6 1.6 0.00 0.00 0.00 37 1017.7
20260504175947 13 54 4.8 8.0 0.00 0.00 0.00 37 1017.7
20260504175444 14 277 6.4 8.0 0.00 0.00 0.00 37 1017.3
20260504174941 14 225 0.0 0.0 0.00 0.00 0.00 37 1017.7
20260504174439 14 30 4.8 4.8 0.00 0.00 0.00 36 1017.4
20260504173936 15 176 4.8 4.8 0.00 0.00 0.00 36 1017.7
20260504173432 15 0 6.4 8.0 0.00 0.00 0.00 36 1017.4
20260504172930 15 76 4.8 11.3 0.00 0.00 0.00 36 1017.8
20260504172426 15 215 3.2 4.8 0.00 0.00 0.00 35 1017.9
20260504171922 16 244 3.2 4.8 0.00 0.00 0.00 33 1017.7
20260504171420 16 315 8.0 9.7 0.00 0.00 0.00 33 1017.9
20260504170917 16 30 0.0 1.6 0.00 0.00 0.00 33 1018.2
20260504170413 15 161 0.0 0.0 0.00 0.00 0.00 35 1017.9
20260504160332 15 308 3.2 4.8 0.00 0.00 0.00 39 1018.9
20260504150756 12 160 4.8 4.8 0.00 0.00 0.00 41 1019.3
20260504150253 11 253 6.4 11.3 0.00 0.00 0.00 41 1019.4
20260504141223 7 219 0.0 0.0 0.00 0.00 0.00 59 1019.4
20260504140720 6 210 0.0 0.0 0.00 0.00 0.00 56 1019.4
20260504140215 6 196 1.6 1.6 0.00 0.00 0.00 59 1019.4
20260504130643 3 218 0.0 0.0 0.00 0.00 0.00 59 1019.2
20260504130140 3 224 0.0 0.0 0.00 0.00 0.00 60 1019.0
20260504120104 2 214 0.0 0.0 0.00 0.00 0.00 62 1018.5
20260504110531 2 208 0.0 0.0 0.00 0.00 0.00 60 1019.0
20260504100448 2 214 0.0 0.0 0.00 0.00 0.00 59 1019.4
20260504081841 3 189 1.6 1.6 0.00 0.00 0.00 53 1019.8
20260504081337 3 204 0.0 0.0 0.00 0.00 0.00 54 1019.9
20260504080833 3 181 1.6 1.6 0.00 0.00 0.00 55 1020.1
20260504080331 3 185 1.6 1.6 0.00 0.00 0.00 55 1020.3
20260504070258 5 199 0.0 0.0 0.00 0.00 0.00 52 1020.7
20260504060219 5 229 0.0 0.0 0.00 0.00 0.00 55 1020.9
20260504050646 6 195 0.0 0.0 0.00 0.00 0.00 54 1021.6
20260504050143 6 195 1.6 1.6 0.00 0.00 0.00 54 1021.1
20260504045640 6 176 0.0 1.6 0.00 0.00 0.00 54 1021.6
20260504045140 6 208 0.0 0.0 0.00 0.00 0.00 53 1021.3
20260504044638 6 204 0.0 0.0 0.00 0.00 0.00 54 1021.4
20260504044135 6 202 0.0 1.6 0.00 0.00 0.00 52 1021.6
20260504043632 6 207 0.0 0.0 0.00 0.00 0.00 52 1021.8
20260504043129 7 208 0.0 0.0 0.00 0.00 0.00 51 1021.4
20260504042626 7 188 1.6 1.6 0.00 0.00 0.00 51 1021.7
20260504042123 7 203 0.0 0.0 0.00 0.00 0.00 52 1021.7
20260504041619 7 220 0.0 0.0 0.00 0.00 0.00 51 1022.0
20260504041115 7 203 0.0 0.0 0.00 0.00 0.00 51 1021.8
20260504040613 7 198 0.0 1.6 0.00 0.00 0.00 51 1022.0
20260504040109 7 226 0.0 1.6 0.00 0.00 0.00 52 1021.7
20260504035606 7 200 1.6 1.6 0.00 0.00 0.00 52 1021.7
20260504035102 7 215 0.0 0.0 0.00 0.00 0.00 52 1021.8
20260504034601 7 179 3.2 3.2 0.00 0.00 0.00 52 1022.1
20260504034057 8 231 0.0 0.0 0.00 0.00 0.00 51 1022.0
20260504033555 8 222 0.0 0.0 0.00 0.00 0.00 50 1021.8
20260504033052 8 198 0.0 0.0 0.00 0.00 0.00 48 1021.8
20260504032549 8 186 1.6 1.6 0.00 0.00 0.00 48 1021.8
20260504032046 8 190 1.6 1.6 0.00 0.00 0.00 49 1021.8
20260504031543 9 211 0.0 0.0 0.00 0.00 0.00 47 1021.3
20260504031039 9 183 3.2 3.2 0.00 0.00 0.00 47 1022.0
20260504030537 8 199 1.6 1.6 0.00 0.00 0.00 48 1022.0
20260504030032 8 207 0.0 0.0 0.00 0.00 0.00 47 1021.8
20260504025530 9 205 0.0 0.0 0.00 0.00 0.00 48 1022.0
20260504025026 9 224 0.0 0.0 0.00 0.00 0.00 46 1021.8
20260504024523 9 176 3.2 3.2 0.00 0.00 0.00 46 1021.7
20260504024020 9 210 0.0 0.0 0.00 0.00 0.00 47 1021.7
20260504023517 10 209 1.6 1.6 0.00 0.00 0.00 48 1021.4
20260504023013 10 152 3.2 3.2 0.00 0.00 0.00 43 1021.8
20260504022509 10 197 0.0 1.6 0.00 0.00 0.00 44 1022.0
20260504022005 10 169 3.2 3.2 0.00 0.00 0.00 44 1021.7
20260504021503 10 220 0.0 0.0 0.00 0.00 0.00 45 1021.6
20260504021000 10 207 0.0 0.0 0.00 0.00 0.00 41 1021.8
20260504020456 11 214 0.0 0.0 0.00 0.00 0.00 42 1021.4
20260504015953 11 220 0.0 0.0 0.00 0.00 0.00 40 1021.6
20260504015449 11 204 0.0 0.0 0.00 0.00 0.00 39 1021.7
20260504014945 12 204 0.0 0.0 0.00 0.00 0.00 39 1021.4
20260504014441 12 209 0.0 0.0 0.00 0.00 0.00 39 1021.4
20260504013938 12 214 0.0 0.0 0.00 0.00 0.00 38 1021.3
20260504013437 12 208 0.0 0.0 0.00 0.00 0.00 37 1021.4
20260504012932 13 252 1.6 1.6 0.00 0.00 0.00 37 1021.1
20260504012431 13 281 4.8 9.7 0.00 0.00 0.00 36 1021.4
20260504011928 13 166 4.8 4.8 0.00 0.00 0.00 36 1021.1
20260504011425 13 218 0.0 0.0 0.00 0.00 0.00 35 1020.9
20260504010920 13 347 1.6 3.2 0.00 0.00 0.00 35 1020.9
20260504010417 13 224 1.6 3.2 0.00 0.00 0.00 35 1021.2
20260504005913 13 342 8.0 9.7 0.00 0.00 0.00 34 1020.9
20260504005410 13 307 3.2 3.2 0.00 0.00 0.00 34 1021.2
20260504004908 14 29 6.4 9.7 0.00 0.00 0.00 33 1021.3
20260504004405 14 274 3.2 3.2 0.00 0.00 0.00 33 1021.1
20260504003902 14 16 4.8 4.8 0.00 0.00 0.00 33 1021.2
20260504003358 15 356 3.2 4.8 0.00 0.00 0.00 32 1021.1
20260504002855 15 352 4.8 4.8 0.00 0.00 0.00 30 1021.1
20260504002352 15 231 0.0 0.0 0.00 0.00 0.00 30 1021.2
20260504001849 15 216 0.0 1.6 0.00 0.00 0.00 30 1021.1
20260504001347 15 237 1.6 3.2 0.00 0.00 0.00 31 1020.8
20260504000843 14 239 0.0 0.0 0.00 0.00 0.00 32 1021.1
20260504000341 15 117 17.7 22.5 0.00 0.00 0.00 31 1020.9
20260503235838 15 234 1.6 3.2 0.00 0.00 0.00 30 1021.1
20260503235335 15 132 4.8 8.0 0.00 0.00 0.00 29 1021.2
20260503234833 15 244 3.2 4.8 0.00 0.00 0.00 29 1021.1
20260503234330 15 232 4.8 4.8 0.00 0.00 0.00 28 1020.8
20260503233828 15 246 6.4 8.0 0.00 0.00 0.00 24 1020.8
20260503233323 15 225 1.6 1.6 0.00 0.00 0.00 29 1020.9
20260503232820 15 58 8.0 12.9 0.00 0.00 0.00 26 1020.4
20260503232318 16 148 3.2 4.8 0.00 0.00 0.00 25 1020.4
20260503231816 15 196 1.6 3.2 0.00 0.00 0.00 26 1020.7
20260503231312 16 226 0.0 0.0 0.00 0.00 0.00 26 1020.8
20260503230808 16 201 1.6 3.2 0.00 0.00 0.00 28 1020.8
20260503230306 16 229 0.0 1.6 0.00 0.00 0.00 26 1020.7
20260503225803 15 248 3.2 3.2 0.00 0.00 0.00 27 1021.1
20260503225258 15 245 1.6 3.2 0.00 0.00 0.00 26 1020.7
20260503224755 15 238 4.8 4.8 0.00 0.00 0.00 28 1020.9
20260503224253 16 225 1.6 1.6 0.00 0.00 0.00 27 1020.8
20260503223750 15 226 3.2 3.2 0.00 0.00 0.00 28 1020.8
20260503223248 15 236 3.2 3.2 0.00 0.00 0.00 28 1021.1
20260503222743 15 217 1.6 1.6 0.00 0.00 0.00 27 1021.1
20260503222242 15 219 4.8 4.8 0.00 0.00 0.00 27 1020.9
20260503221740 15 38 6.4 9.7 0.00 0.00 0.00 26 1021.1
20260503221237 15 252 8.0 9.7 0.00 0.00 0.00 27 1021.4
20260503220734 16 304 9.7 11.3 0.00 0.00 0.00 27 1021.4
20260503220231 15 33 8.0 9.7 0.00 0.00 0.00 27 1021.4
20260503215727 15 233 3.2 3.2 0.00 0.00 0.00 27 1021.4
20260503215224 15 305 8.0 9.7 0.00 0.00 0.00 26 1021.7
20260503214722 15 242 9.7 11.3 0.00 0.00 0.00 26 1021.7
20260503214219 15 349 14.5 17.7 0.00 0.00 0.00 25 1022.0
20260503213717 15 264 11.3 12.9 0.00 0.00 0.00 25 1021.7
20260503213213 16 228 3.2 4.8 0.00 0.00 0.00 24 1021.7
20260503212711 16 233 1.6 1.6 0.00 0.00 0.00 25 1022.0
20260503212208 16 21 9.7 11.3 0.00 0.00 0.00 23 1021.8
20260503211706 16 316 6.4 8.0 0.00 0.00 0.00 24 1021.8
20260503211202 16 229 11.3 12.9 0.00 0.00 0.00 25 1022.0
20260503210658 16 233 9.7 12.9 0.00 0.00 0.00 24 1022.3
20260503210155 16 318 6.4 8.0 0.00 0.00 0.00 24 1022.5
20260503205650 16 331 4.8 4.8 0.00 0.00 0.00 24 1022.3
20260503205146 16 287 6.4 9.7 0.00 0.00 0.00 24 1022.3
20260503204643 16 229 4.8 4.8 0.00 0.00 0.00 24 1022.5
20260503204141 15 238 6.4 8.0 0.00 0.00 0.00 24 1022.3
20260503203638 16 359 8.0 12.9 0.00 0.00 0.00 23 1022.5
20260503203135 16 354 14.5 16.1 0.00 0.00 0.00 23 1022.5